SCP
-0 0 0 0 0 0 0 -0 0 0 0 0 0 0 0 0 0 0 0 0 0 0 0 0 0 0 0 0 0 0 0 0 0 0 0 0 0 0 0 0 0 0 0 0 0 0 0
0 0 0 0 0 0 -0 -0 0 0 0 0 0 0 0 0 0 0 0 0 0 0 0 0 0 0 0 0 0 0 -0 0 0 0 0 0 0 0 0 0 0 0 0 0 0 0 0
0 0 0 0 0 -0 -0 -0 0 0 0 0 0 0 0 0 0 0 0 0 0 0 0 0 0 0 -0 -0 0 0 0 0 0 0 0 0 0 0 0 0 0 0 0 0 0 0 0
0 0 0 0 -0 -0 -0 -0 -0 0 0 0 0 -0 0 0 0 0 0 0 0 0 0 0 0 -0 0 -0 0 0 -0 0 0 0 0 0 0 0 0 0 0 0 0 0 0 0 0
0 0 0 0 -0 -0 -0 -0 -0 0 0 0 0 0 0 0 0 0 0 0 0 0 0 0 0 0 -0 0 0 0 0 0 0 0 0 0 0 0 0 0 0 0 0 0 0 0 0
0 0 0 0 -0 -0 -0 -0 -0 -0 0 0 0 0 0 0 0 -0 -0 0 0 0 0 0 0 0 0 0 0 0 0 0 0 0 0 0 0 0 0 0 0 0 0 -0 0 0 0
-0 -0 0 0 -0 -0 -0 -0 -0 -0 0 0 0 0 0 0 0 0 0 0 0 0 0 0 0 0 0 0 0 0 0 0 0 0 0 0 0 0 0 0 -0 -0 0 0 0 0 0
-0 -0 -0 0 -0 -0 -0 -0 -0 0 0 0 0 0 0 0 0 0 0 0 0 0 0 -0 0 0 0 0 0 0 0 0 -0 0 0 0 0 0 0 0 0 0 0 0 0 -0 0
-0 -0 0 0 0 -0 -0 -0 -0 0 0 0 0 0 0 0 0 0 0 0 0 0 0 -0 0 0 0 0 0 0 0 0 -0 0 0 0 0 -0 0 0 0 0 0 -0 0 0 0
-0 0 0 0 0 0 -0 -0 -0 0 0 0 0 0 0 0 0 0 0 0 0 0 0 0 0 0 0 0 0 0 0 0 0 0 0 0 0 0 0 0 0 0 0 -0 0 -0 0
-0 0 0 0 0 0 0 -0 -0 0 0 0 0 0 -0 0 0 0 0 0 0 0 -0 0 0 0 0 0 0 0 0 0 0 0 0 0 0 0 0 0 0 0 0 0 0 0 0
-0 -0 -0 0 0 0 0 0 -0 0 0 0 0 0 -0 0 0 0 0 0 0 -0 0 0 0 0 0 0 0 0 0 0 0 0 0 0 0 0 0 0 0 0 0 -0 0 -0 0
-0 -0 -0 -0 0 0 0 0 -0 -0 0 0 0 0 0 0 0 0 0 0 -0 0 0 0 0 0 0 0 0 0 -0 0 0 -0 0 -0 -0 0 0 0 0 0 0 0 0 0 -0
0 -0 0 0 -0 0 0 0 0 -0 -0 -0 0 0 0 0 0 0 0 0 -0 0 0 0 0 0 0 0 0 0 -0 0 0 -0 0 0 -0 0 0 0 0 0 0 0 0 0 -0
0 -0 -0 -0 0 0 0 0 0 -0 -0 -0 0 0 0 0 0 0 0 0 0 0 0 0 0 0 0 0 0 0 0 0 0 -0 0 0 0 0 0 -0 0 0 0 0 0 0 -0
-0 -0 0 0 0 0 0 0 0 -0 -0 -0 0 0 0 0 0 0 0 0 0 0 0 0 0 0 0 0 0 0 0 0 0 0 0 0 0 0 -0 -0 0 0 0 0 0 0 0
0 0 0 0 0 0 0 0 0 -0 -0 -0 0 0 0 0 0 0 0 0 0 0 0 0 0 0 0 0 0 -0 0 0 0 0 0 0 0 0 -0 0 0 0 0 0 0 0 -0
0 0 0 0 0 0 0 0 0 -0 -0 0 0 0 0 0 0 0 0 0 0 0 0 0 0 0 0 0 0 0 -0 0 0 0 0 0 0 0 -0 -0 0 0 0 0 -0 0 0
0 0 0 0 0 0 0 0 0 0 -0 0 -0 0 0 0 0 0 0 0 0 0 0 0 0 0 0 0 0 0 0 -0 -0 -0 0 0 0 0 -0 0 0 -0 0 0 -0 -0 -0
0 0 0 0 0 0 0 0 0 0 0 0 -0 -0 0 0 0 0 0 0 0 0 0 0 0 0 0 0 0 0 -0 0 0 0 0 0 0 0 0 -0 0 -0 0 0 0 -0 0
0 0 0 0 0 0 0 0 0 0 0 0 -0 0 0 0 0 0 0 0 0 0 0 0 0 0 0 0 0 0 -0 -0 -0 0 0 0 0 -0 -0 -0 -0 -0 -0 0 0 0 -0
0 0 0 0 0 0 0 0 0 0 0 0 0 0 0 0 0 0 0 0 0 0 0 0 0 0 0 0 0 -0 -0 -0 0 0 0 0 0 -0 -0 -0 -0 -0 -0 0 0 0 -0
0 0 0 0 0 0 0 0 0 0 0 0 0 0 0 0 0 0 0 0 0 0 0 0 0 0 0 0 0 -0 -0 -0 0 0 0 0 0 0 0 -0 -0 -0 -0 0 -0 -0 0
0 0 0 0 0 0 0 0 0 0 0 0 0 0 0 0 0 0 0 0 0 0 0 0 0 0 0 0 0 0 0 0 0 0 0 -0 -0 0 0 -0 -0 -0 -0 0 -0 0 0
0 0 0 0 0 0 0 0 0 0 0 0 0 0 0 0 0 0 0 0 0 0 0 0 0 0 0 0 0 0 0 0 0 0 0 0 -0 -0 -0 -0 -0 0 0 0 0 -0 0
0 0 0 0 0 0 0 0 0 0 0 0 0 0 0 0 0 0 0 0 0 0 0 0 0 0 0 0 0 0 0 0 0 0 -0 0 -0 -0 -0 -0 -0 -0 -0 -0 0 -0 0
0 0 0 0 0 0 0 0 0 0 0 0 0 0 0 0 0 0 0 0 0 0 0 0 -0 0 0 0 0 0 0 0 0 0 0 -0 -0 -0 -0 -0 0 0 -0 0 0 0 -0
0 0 0 0 0 0 0 0 0 0 0 0 0 0 0 0 0 0 0 0 0 0 0 0 0 0 0 0 0 0 0 0 0 0 0 0 -0 -0 -0 -0 -0 -0 0 0 0 0 -0
0 0 0 0 0 0 0 0 0 0 0 0 0 0 0 0 0 0 0 0 0 0 0 0 0 0 0 0 0 0 0 0 0 0 0 0 -0 -0 -0 -0 -0 -0 -0 -0 0 0 0
Wind_Speed_500mb
63 64 64 64 65 65 65 65 64 63 62 61 59 55 50 46 37 29 28 28 34 38 41 41 36 29 27 15 17 11 18 24 26 28 25 26 30 38 15 21 34 21 23 44 57 65 65
62 65 64 66 69 69 68 67 67 67 67 66 63 60 57 49 39 28 27 28 34 39 41 39 34 25 15 10 10 14 22 23 25 25 27 26 31 36 30 33 22 36 43 49 57 53 54
62 64 66 65 68 70 71 71 71 73 71 70 67 63 57 49 37 25 26 31 33 37 36 36 28 19 6 6 2 18 21 28 28 23 21 26 30 30 45 23 30 42 30 36 36 42 28
61 61 63 66 70 73 72 74 75 75 75 75 72 63 56 45 32 26 27 34 34 30 24 26 18 12 12 5 5 16 16 17 25 31 16 24 22 29 31 33 31 26 18 16 20 24 37
61 63 63 66 71 73 73 75 78 78 78 79 72 59 48 43 37 33 36 35 30 26 13 18 10 15 20 21 19 11 13 25 24 24 29 25 20 27 20 11 12 13 17 26 33 31 33
60 63 64 67 71 72 73 76 79 81 81 80 68 47 45 41 36 36 34 31 27 8 15 19 4 14 17 16 17 26 24 16 22 21 26 28 20 11 13 6 10 17 15 18 23 19 34
59 62 66 69 71 74 75 78 80 83 82 81 64 39 43 40 27 28 28 26 35 9 12 24 34 36 35 30 22 16 14 23 28 35 17 36 4 21 30 15 30 23 18 26 32 29 31
57 61 65 69 72 76 77 81 82 84 84 81 64 39 41 43 24 30 28 27 39 28 24 28 29 33 16 18 16 9 15 12 18 20 18 20 31 31 37 35 29 42 24 28 27 30 31
56 61 65 68 70 74 78 80 83 85 84 81 63 40 46 36 25 31 29 38 30 29 9 24 15 16 10 33 19 12 6 13 18 22 28 27 37 40 22 23 24 31 22 31 29 32 27
55 59 63 67 71 75 78 80 83 85 86 81 62 37 49 36 21 29 35 35 35 14 3 3 25 16 37 24 1 26 14 11 5 16 18 18 14 30 9 14 22 34 34 12 19 36 22
54 58 62 66 71 75 78 81 84 86 88 83 62 33 40 38 34 37 43 38 24 16 8 12 31 36 58 3 17 17 16 8 11 18 5 25 37 39 38 28 27 27 3 5 15 21 17
54 58 61 64 68 73 78 81 83 86 89 88 60 27 34 37 36 46 44 29 20 3 8 14 43 43 24 30 5 23 12 4 3 15 17 35 59 33 31 18 23 12 5 5 9 6 11
53 57 61 65 68 72 76 80 83 84 88 87 59 19 33 36 37 41 44 37 3 10 23 23 42 41 40 36 34 30 30 8 9 17 24 24 20 17 12 10 12 10 9 6 6 5 11
52 56 60 64 68 72 76 81 85 86 88 85 46 16 25 37 40 41 42 9 9 31 21 31 39 44 24 35 30 33 31 8 14 10 18 19 19 7 18 15 7 5 6 4 8 6 8
55 58 60 64 67 70 75 80 84 86 88 86 32 16 16 62 32 42 29 10 7 15 23 31 36 23 30 36 28 35 11 3 8 7 5 11 13 29 28 17 20 7 12 7 8 17 8
53 55 58 62 66 68 72 78 83 86 85 82 37 18 12 63 38 36 8 8 11 15 17 22 23 17 36 33 33 32 17 2 8 8 16 5 17 15 33 23 29 9 10 2 4 8 4
47 50 53 57 61 65 68 73 79 84 84 77 35 16 23 49 21 37 9 9 12 31 28 14 23 28 32 28 30 42 24 6 7 10 19 5 5 27 27 3 8 3 4 7 4 8 5
46 47 49 52 56 58 61 66 70 79 82 72 29 10 30 38 25 19 11 16 26 27 26 7 7 17 25 28 25 24 36 6 10 9 12 8 9 15 38 36 20 29 7 14 7 9 7
49 51 52 54 57 60 59 59 60 64 71 69 44 13 34 33 8 7 15 16 23 22 12 9 15 13 21 18 18 25 23 36 30 16 13 10 5 15 20 19 9 12 5 16 1 5 12
49 50 53 54 56 59 57 55 56 52 51 47 22 8 21 20 48 17 18 23 18 27 16 39 14 21 18 21 24 15 25 28 48 7 4 2 4 13 12 26 30 39 26 27 14 7 5
48 49 51 52 53 55 57 51 51 51 42 30 18 10 15 9 24 37 35 13 26 22 24 23 9 20 25 18 18 17 32 32 33 0 11 5 7 23 33 42 31 21 45 13 15 17 12
50 51 52 51 51 51 50 48 46 48 43 18 16 16 19 32 33 25 13 15 25 31 24 14 12 21 15 15 11 32 28 25 7 14 16 10 11 29 27 27 32 22 50 33 22 27 24
50 48 47 49 51 50 48 45 41 44 40 15 19 20 16 24 16 14 13 26 33 36 11 42 24 13 17 16 38 51 50 46 20 14 6 7 9 13 13 35 39 18 37 28 36 33 13
55 53 47 46 46 46 47 43 38 38 38 31 19 23 12 10 16 18 39 36 32 41 22 41 44 9 23 47 55 49 30 20 27 21 21 11 12 7 11 20 8 10 30 29 27 36 42
55 55 53 48 48 44 41 41 38 36 37 34 21 16 9 10 19 34 33 30 42 39 32 40 31 30 34 37 10 12 7 3 9 4 12 9 8 8 6 7 12 20 32 26 20 13 35
63 58 56 52 46 49 44 40 40 38 36 37 32 10 12 18 8 37 43 27 15 13 12 28 48 47 24 8 6 4 4 7 8 15 15 19 5 4 8 8 4 2 36 59 12 3 34
59 57 54 52 51 48 48 44 39 39 40 41 38 21 15 20 36 22 20 17 20 15 9 34 35 17 20 7 6 5 5 7 6 9 11 11 9 5 10 7 10 20 47 39 13 12 47
57 55 55 53 51 50 49 49 45 40 40 40 43 31 24 16 58 40 9 23 38 31 8 30 24 11 10 8 7 6 4 4 1 7 8 3 8 7 7 6 11 34 22 13 6 21 37
57 56 54 55 53 50 51 52 55 42 42 44 49 24 25 40 56 78 70 42 49 52 38 8 22 27 10 4 8 7 7 5 7 5 4 3 7 5 4 6 5 11 9 13 21 34 34
Wind_Direction_500mb
29 27 26 25 23 21 17 14 11 8 6 3 360 357 352 348 340 333 336 339 340 341 340 342 340 334 348 341 279 340 299 329 3 353 343 311 308 311 289 306 312 273 278 284 267 261 258
28 25 24 23 22 20 17 13 8 5 3 360 355 350 344 341 337 328 332 338 340 342 339 342 339 335 347 286 339 345 355 344 344 326 320 321 315 311 297 293 295 302 293 288 292 293 277
25 23 23 23 20 17 15 11 7 4 1 359 354 349 345 345 341 335 338 340 338 341 340 345 349 344 318 334 162 321 325 313 304 301 299 316 316 319 310 311 301 317 313 303 290 277 285
23 22 22 21 18 16 13 10 6 3 0 359 356 353 352 356 360 355 347 339 339 342 346 353 16 8 273 269 269 281 275 301 329 309 283 304 301 297 277 283 295 297 291 293 285 299 268
21 20 19 17 15 14 12 10 6 4 2 1 358 358 7 9 11 7 351 349 349 340 345 355 4 356 285 300 270 324 313 310 302 303 294 281 286 280 282 271 300 251 256 259 278 271 268
19 18 16 15 13 13 11 9 6 5 3 2 0 6 9 10 21 18 16 4 352 7 356 347 358 289 276 315 348 318 320 268 284 282 293 271 239 264 268 211 239 261 288 291 286 292 313
17 15 14 13 12 10 9 7 5 2 2 2 2 4 7 8 5 360 6 1 5 354 287 252 264 245 274 309 307 298 305 299 294 299 285 287 184 262 270 284 304 291 285 278 286 291 286
14 14 12 11 10 9 8 6 4 1 0 1 1 1 3 0 1 350 349 352 352 321 308 306 262 261 307 271 265 23 321 287 278 271 282 295 264 257 248 289 266 297 262 269 282 284 289
12 11 10 9 8 7 6 5 4 1 360 0 0 1 1 4 9 358 355 354 338 320 295 296 265 289 293 306 289 283 307 284 279 275 279 284 287 295 209 261 307 273 278 291 283 288 276
9 9 8 6 5 5 4 3 2 0 358 359 358 2 1 8 9 7 356 346 331 12 325 22 31 346 332 336 344 313 262 261 279 295 307 281 323 314 352 243 243 282 265 287 319 303 278
5 6 6 5 4 3 3 2 1 359 356 358 355 0 16 4 345 352 343 326 328 348 39 13 4 337 333 154 283 268 248 221 258 276 275 265 290 297 279 229 245 254 36 239 238 278 306
0 2 3 3 2 2 1 0 1 359 355 354 353 354 5 359 0 352 328 355 332 14 315 11 354 332 327 332 211 310 164 149 254 287 272 284 287 264 251 274 237 118 359 293 239 197 249
356 358 359 359 360 0 0 359 360 0 356 354 352 1 358 346 351 340 343 350 5 68 358 352 338 327 310 359 5 347 348 51 40 343 333 322 326 55 14 289 227 89 44 329 329 181 237
351 354 356 356 358 358 358 358 358 359 358 353 355 357 346 351 349 330 342 340 9 15 2 344 334 313 6 357 349 342 328 51 50 9 304 351 329 46 348 286 298 105 162 164 276 269 325
347 350 352 353 355 357 357 358 357 360 359 351 360 358 7 9 335 337 348 47 16 2 335 340 325 342 340 346 351 341 57 62 12 10 359 324 280 331 294 324 150 150 215 186 229 256 271
344 346 348 350 352 355 356 357 355 358 0 355 360 355 303 354 339 340 18 14 22 326 344 348 338 342 329 334 347 341 343 42 286 31 169 281 288 299 316 314 34 141 134 206 187 307 285
340 343 344 347 349 352 355 357 355 356 2 1 2 350 355 357 10 16 68 341 350 2 29 349 344 317 337 329 340 327 350 174 237 306 290 268 220 293 296 353 246 294 153 79 256 254 258
332 336 340 341 343 348 353 355 358 355 359 6 9 335 345 5 36 2 9 339 346 357 20 359 300 312 309 342 329 327 326 334 150 275 341 106 295 294 297 299 280 199 190 160 177 286 257
327 330 335 338 340 342 348 352 359 359 355 354 343 298 351 13 29 6 293 312 325 358 15 304 306 327 349 335 325 317 342 327 15 30 352 355 5 306 336 340 58 48 309 259 34 113 11
323 326 329 334 336 338 343 347 352 3 355 355 343 325 340 350 352 341 318 305 2 354 342 336 344 348 339 320 316 303 346 336 344 336 310 163 269 274 312 286 283 291 258 244 247 100 250
316 318 321 326 331 334 337 343 346 354 4 1 9 345 359 304 325 310 300 326 345 344 1 349 324 335 330 329 324 352 331 328 330 168 347 257 252 285 297 291 314 356 20 15 259 149 51
308 311 315 320 324 327 332 343 344 350 5 26 14 347 317 295 297 310 352 337 350 343 335 317 318 320 341 312 350 315 318 317 318 321 326 294 294 314 311 308 329 23 22 40 91 112 91
303 307 311 316 319 324 327 339 347 347 360 9 341 332 302 283 310 343 345 328 338 337 317 321 315 336 326 331 312 291 282 273 244 267 279 260 320 312 282 314 309 30 25 24 38 30 42
302 304 305 308 310 314 320 326 336 343 349 347 344 342 294 286 318 322 315 339 334 316 310 335 312 7 322 322 313 302 274 265 213 254 231 307 307 256 281 318 38 143 41 38 29 10 1
297 298 294 297 302 303 307 313 322 329 332 334 330 343 300 288 301 304 333 320 328 330 325 310 14 342 330 314 305 332 319 233 254 330 23 342 298 306 309 291 290 51 359 342 3 336 358
291 291 293 289 289 296 297 303 308 312 315 321 327 274 274 299 248 326 315 332 318 326 325 312 325 333 325 295 282 302 307 353 344 338 32 337 285 300 323 322 283 88 339 323 264 229 354
290 289 289 289 285 283 289 291 295 299 305 310 314 283 260 265 282 309 309 301 292 302 277 297 342 323 345 330 312 23 332 35 348 308 331 338 326 259 339 318 316 349 329 326 61 308 323
289 288 288 288 286 282 278 280 283 285 291 298 300 287 247 266 286 284 282 299 296 293 281 322 328 14 351 344 345 342 303 333 359 254 281 300 313 340 335 322 330 359 346 36 268 307 324
291 290 288 284 284 285 281 274 277 266 278 283 291 304 275 239 269 294 298 289 273 265 258 262 290 307 17 345 17 337 316 299 316 294 270 286 234 282 232 268 309 330 312 351 338 336 330
Wind_Speed_850mb
63 64 64 64 65 65 65 65 64 63 62 61 59 55 50 46 37 29 28 28 34 38 41 41 36 29 27 15 17 11 18 24 26 28 25 26 30 38 15 21 34 21 23 44 57 65 65
62 65 64 66 69 69 68 67 67 67 67 66 63 60 57 49 39 28 27 28 34 39 41 39 34 25 15 10 10 14 22 23 25 25 27 26 31 36 30 33 22 36 43 49 57 53 54
62 64 66 65 68 70 71 71 71 73 71 70 67 63 57 49 37 25 26 31 33 37 36 36 28 19 6 6 2 18 21 28 28 23 21 26 30 30 45 23 30 42 30 36 36 42 28
61 61 63 66 70 73 72 74 75 75 75 75 72 63 56 45 32 26 27 34 34 30 24 26 18 12 12 5 5 16 16 17 25 31 16 24 22 29 31 33 31 26 18 16 20 24 37
61 63 63 66 71 73 73 75 78 78 78 79 72 59 48 43 37 33 36 35 30 26 13 18 10 15 20 21 19 11 13 25 24 24 29 25 20 27 20 11 12 13 17 26 33 31 33
60 63 64 67 71 72 73 76 79 81 81 80 68 47 45 41 36 36 34 31 27 8 15 19 4 14 17 16 17 26 24 16 22 21 26 28 20 11 13 6 10 17 15 18 23 19 34
59 62 66 69 71 74 75 78 80 83 82 81 64 39 43 40 27 28 28 26 35 9 12 24 34 36 35 30 22 16 14 23 28 35 17 36 4 21 30 15 30 23 18 26 32 29 31
57 61 65 69 72 76 77 81 82 84 84 81 64 39 41 43 24 30 28 27 39 28 24 28 29 33 16 18 16 9 15 12 18 20 18 20 31 31 37 35 29 42 24 28 27 30 31
56 61 65 68 70 74 78 80 83 85 84 81 63 40 46 36 25 31 29 38 30 29 9 24 15 16 10 33 19 12 6 13 18 22 28 27 37 40 22 23 24 31 22 31 29 32 27
55 59 63 67 71 75 78 80 83 85 86 81 62 37 49 36 21 29 35 35 35 14 3 3 25 16 37 24 1 26 14 11 5 16 18 18 14 30 9 14 22 34 34 12 19 36 22
54 58 62 66 71 75 78 81 84 86 88 83 62 33 40 38 34 37 43 38 24 16 8 12 31 36 58 3 17 17 16 8 11 18 5 25 37 39 38 28 27 27 3 5 15 21 17
54 58 61 64 68 73 78 81 83 86 89 88 60 27 34 37 36 46 44 29 20 3 8 14 43 43 24 30 5 23 12 4 3 15 17 35 59 33 31 18 23 12 5 5 9 6 11
53 57 61 65 68 72 76 80 83 84 88 87 59 19 33 36 37 41 44 37 3 10 23 23 42 41 40 36 34 30 30 8 9 17 24 24 20 17 12 10 12 10 9 6 6 5 11
52 56 60 64 68 72 76 81 85 86 88 85 46 16 25 37 40 41 42 9 9 31 21 31 39 44 24 35 30 33 31 8 14 10 18 19 19 7 18 15 7 5 6 4 8 6 8
55 58 60 64 67 70 75 80 84 86 88 86 32 16 16 62 32 42 29 10 7 15 23 31 36 23 30 36 28 35 11 3 8 7 5 11 13 29 28 17 20 7 12 7 8 17 8
53 55 58 62 66 68 72 78 83 86 85 82 37 18 12 63 38 36 8 8 11 15 17 22 23 17 36 33 33 32 17 2 8 8 16 5 17 15 33 23 29 9 10 2 4 8 4
47 50 53 57 61 65 68 73 79 84 84 77 35 16 23 49 21 37 9 9 12 31 28 14 23 28 32 28 30 42 24 6 7 10 19 5 5 27 27 3 8 3 4 7 4 8 5
46 47 49 52 56 58 61 66 70 79 82 72 29 10 30 38 25 19 11 16 26 27 26 7 7 17 25 28 25 24 36 6 10 9 12 8 9 15 38 36 20 29 7 14 7 9 7
49 51 52 54 57 60 59 59 60 64 71 69 44 13 34 33 8 7 15 16 23 22 12 9 15 13 21 18 18 25 23 36 30 16 13 10 5 15 20 19 9 12 5 16 1 5 12
49 50 53 54 56 59 57 55 56 52 51 47 22 8 21 20 48 17 18 23 18 27 16 39 14 21 18 21 24 15 25 28 48 7 4 2 4 13 12 26 30 39 26 27 14 7 5
48 49 51 52 53 55 57 51 51 51 42 30 18 10 15 9 24 37 35 13 26 22 24 23 9 20 25 18 18 17 32 32 33 0 11 5 7 23 33 42 31 21 45 13 15 17 12
50 51 52 51 51 51 50 48 46 48 43 18 16 16 19 32 33 25 13 15 25 31 24 14 12 21 15 15 11 32 28 25 7 14 16 10 11 29 27 27 32 22 50 33 22 27 24
50 48 47 49 51 50 48 45 41 44 40 15 19 20 16 24 16 14 13 26 33 36 11 42 24 13 17 16 38 51 50 46 20 14 6 7 9 13 13 35 39 18 37 28 36 33 13
55 53 47 46 46 46 47 43 38 38 38 31 19 23 12 10 16 18 39 36 32 41 22 41 44 9 23 47 55 49 30 20 27 21 21 11 12 7 11 20 8 10 30 29 27 36 42
55 55 53 48 48 44 41 41 38 36 37 34 21 16 9 10 19 34 33 30 42 39 32 40 31 30 34 37 10 12 7 3 9 4 12 9 8 8 6 7 12 20 32 26 20 13 35
63 58 56 52 46 49 44 40 40 38 36 37 32 10 12 18 8 37 43 27 15 13 12 28 48 47 24 8 6 4 4 7 8 15 15 19 5 4 8 8 4 2 36 59 12 3 34
59 57 54 52 51 48 48 44 39 39 40 41 38 21 15 20 36 22 20 17 20 15 9 34 35 17 20 7 6 5 5 7 6 9 11 11 9 5 10 7 10 20 47 39 13 12 47
57 55 55 53 51 50 49 49 45 40 40 40 43 31 24 16 58 40 9 23 38 31 8 30 24 11 10 8 7 6 4 4 1 7 8 3 8 7 7 6 11 34 22 13 6 21 37
57 56 54 55 53 50 51 52 55 42 42 44 49 24 25 40 56 78 70 42 49 52 38 8 22 27 10 4 8 7 7 5 7 5 4 3 7 5 4 6 5 11 9 13 21 34 34
Wind_Direction_850mb
29 27 26 25 23 21 17 14 11 8 6 3 360 357 352 348 340 333 336 339 340 341 340 342 340 334 348 341 279 340 299 329 3 353 343 311 308 311 289 306 312 273 278 284 267 261 258
28 25 24 23 22 20 17 13 8 5 3 360 355 350 344 341 337 328 332 338 340 342 339 342 339 335 347 286 339 345 355 344 344 326 320 321 315 311 297 293 295 302 293 288 292 293 277
25 23 23 23 20 17 15 11 7 4 1 359 354 349 345 345 341 335 338 340 338 341 340 345 349 344 318 334 162 321 325 313 304 301 299 316 316 319 310 311 301 317 313 303 290 277 285
23 22 22 21 18 16 13 10 6 3 0 359 356 353 352 356 360 355 347 339 339 342 346 353 16 8 273 269 269 281 275 301 329 309 283 304 301 297 277 283 295 297 291 293 285 299 268
21 20 19 17 15 14 12 10 6 4 2 1 358 358 7 9 11 7 351 349 349 340 345 355 4 356 285 300 270 324 313 310 302 303 294 281 286 280 282 271 300 251 256 259 278 271 268
19 18 16 15 13 13 11 9 6 5 3 2 0 6 9 10 21 18 16 4 352 7 356 347 358 289 276 315 348 318 320 268 284 282 293 271 239 264 268 211 239 261 288 291 286 292 313
17 15 14 13 12 10 9 7 5 2 2 2 2 4 7 8 5 360 6 1 5 354 287 252 264 245 274 309 307 298 305 299 294 299 285 287 184 262 270 284 304 291 285 278 286 291 286
14 14 12 11 10 9 8 6 4 1 0 1 1 1 3 0 1 350 349 352 352 321 308 306 262 261 307 271 265 23 321 287 278 271 282 295 264 257 248 289 266 297 262 269 282 284 289
12 11 10 9 8 7 6 5 4 1 360 0 0 1 1 4 9 358 355 354 338 320 295 296 265 289 293 306 289 283 307 284 279 275 279 284 287 295 209 261 307 273 278 291 283 288 276
9 9 8 6 5 5 4 3 2 0 358 359 358 2 1 8 9 7 356 346 331 12 325 22 31 346 332 336 344 313 262 261 279 295 307 281 323 314 352 243 243 282 265 287 319 303 278
5 6 6 5 4 3 3 2 1 359 356 358 355 0 16 4 345 352 343 326 328 348 39 13 4 337 333 154 283 268 248 221 258 276 275 265 290 297 279 229 245 254 36 239 238 278 306
0 2 3 3 2 2 1 0 1 359 355 354 353 354 5 359 0 352 328 355 332 14 315 11 354 332 327 332 211 310 164 149 254 287 272 284 287 264 251 274 237 118 359 293 239 197 249
356 358 359 359 360 0 0 359 360 0 356 354 352 1 358 346 351 340 343 350 5 68 358 352 338 327 310 359 5 347 348 51 40 343 333 322 326 55 14 289 227 89 44 329 329 181 237
351 354 356 356 358 358 358 358 358 359 358 353 355 357 346 351 349 330 342 340 9 15 2 344 334 313 6 357 349 342 328 51 50 9 304 351 329 46 348 286 298 105 162 164 276 269 325
347 350 352 353 355 357 357 358 357 360 359 351 360 358 7 9 335 337 348 47 16 2 335 340 325 342 340 346 351 341 57 62 12 10 359 324 280 331 294 324 150 150 215 186 229 256 271
344 346 348 350 352 355 356 357 355 358 0 355 360 355 303 354 339 340 18 14 22 326 344 348 338 342 329 334 347 341 343 42 286 31 169 281 288 299 316 314 34 141 134 206 187 307 285
340 343 344 347 349 352 355 357 355 356 2 1 2 350 355 357 10 16 68 341 350 2 29 349 344 317 337 329 340 327 350 174 237 306 290 268 220 293 296 353 246 294 153 79 256 254 258
332 336 340 341 343 348 353 355 358 355 359 6 9 335 345 5 36 2 9 339 346 357 20 359 300 312 309 342 329 327 326 334 150 275 341 106 295 294 297 299 280 199 190 160 177 286 257
327 330 335 338 340 342 348 352 359 359 355 354 343 298 351 13 29 6 293 312 325 358 15 304 306 327 349 335 325 317 342 327 15 30 352 355 5 306 336 340 58 48 309 259 34 113 11
323 326 329 334 336 338 343 347 352 3 355 355 343 325 340 350 352 341 318 305 2 354 342 336 344 348 339 320 316 303 346 336 344 336 310 163 269 274 312 286 283 291 258 244 247 100 250
316 318 321 326 331 334 337 343 346 354 4 1 9 345 359 304 325 310 300 326 345 344 1 349 324 335 330 329 324 352 331 328 330 168 347 257 252 285 297 291 314 356 20 15 259 149 51
308 311 315 320 324 327 332 343 344 350 5 26 14 347 317 295 297 310 352 337 350 343 335 317 318 320 341 312 350 315 318 317 318 321 326 294 294 314 311 308 329 23 22 40 91 112 91
303 307 311 316 319 324 327 339 347 347 360 9 341 332 302 283 310 343 345 328 338 337 317 321 315 336 326 331 312 291 282 273 244 267 279 260 320 312 282 314 309 30 25 24 38 30 42
302 304 305 308 310 314 320 326 336 343 349 347 344 342 294 286 318 322 315 339 334 316 310 335 312 7 322 322 313 302 274 265 213 254 231 307 307 256 281 318 38 143 41 38 29 10 1
297 298 294 297 302 303 307 313 322 329 332 334 330 343 300 288 301 304 333 320 328 330 325 310 14 342 330 314 305 332 319 233 254 330 23 342 298 306 309 291 290 51 359 342 3 336 358
291 291 293 289 289 296 297 303 308 312 315 321 327 274 274 299 248 326 315 332 318 326 325 312 325 333 325 295 282 302 307 353 344 338 32 337 285 300 323 322 283 88 339 323 264 229 354
290 289 289 289 285 283 289 291 295 299 305 310 314 283 260 265 282 309 309 301 292 302 277 297 342 323 345 330 312 23 332 35 348 308 331 338 326 259 339 318 316 349 329 326 61 308 323
289 288 288 288 286 282 278 280 283 285 291 298 300 287 247 266 286 284 282 299 296 293 281 322 328 14 351 344 345 342 303 333 359 254 281 300 313 340 335 322 330 359 346 36 268 307 324
291 290 288 284 284 285 281 274 277 266 278 283 291 304 275 239 269 294 298 289 273 265 258 262 290 307 17 345 17 337 316 299 316 294 270 286 234 282 232 268 309 330 312 351 338 336 330